Regional Weather Roundup
Issued by NWS

Home | Current Version | Previous Version | Text Only | Print | Product List | Glossary On
Versions: 1 2 3 4 5 6 7 8 9 10 11 12 13 14 15 16 17 18 19 20 21 22 23 24 25 26 27 28 29 30 31 32 33 34 35 36 37 38 39 40 41 42 43 44 45 46 47 48 49 50
000
ASUS43 KLOT 080712
RWRIL

ILLINOIS REGIONAL WEATHER ROUNDUP
NATIONAL WEATHER SERVICE CHICAGO/ROMEOVILLE IL
200 AM CDT WED JUL 08 2015

NOTE: "FAIR" INDICATES FEW OR NO CLOUDS BELOW 12,000 FEET WITH NO
SIGNIFICANT WEATHER AND/OR OBSTRUCTIONS TO VISIBILITY.

* THESE STATIONS ARE NOT UNDER NWS QUALITY CONTROL. THEY ALSO MAY NOT
  REPORT WEATHER SUCH AS PRECIPITATION OR FOG.

ILZ001-002-007-009-015-016-024-080800-
NORTHWEST ILLINOIS

CITY           SKY/WX    TMP DP  RH WIND       PRES   REMARKS
MOLINE         CLOUDY    60  56  86 E8        30.11R
STERLING*      MOCLDY    55  54  94 CALM      30.12S
SAVANNA*       MOCLDY    58  52  82 CALM      30.12S
$$

ILZ003-004-008-010-011-017-018-080800-
NORTH CENTRAL ILLINOIS

CITY           SKY/WX    TMP DP  RH WIND       PRES   REMARKS
ROCKFORD       PTCLDY    55  50  83 CALM      30.15R
FREEPORT*      MOCLDY    52  51  94 CALM      30.14S
ROCHELLE*      MOCLDY    53  52  96 CALM      30.13S
DE KALB*       MOCLDY    51  49  93 CALM      30.13F
PERU*          MOCLDY    57  51  80 CALM      30.12S
$$

ILZ005-006-012>014-019>023-080800-
NORTHEAST ILLINOIS

CITY           SKY/WX    TMP DP  RH WIND       PRES   REMARKS
CHICAGO-OHARE  MOCLDY    55  48  77 N7        30.10S
CHICAGO-MIDWAY MOCLDY    59  47  64 N5        30.10S
AURORA         MOCLDY    54  48  80 NW3       30.12S
LANSING*       PTCLDY    56  49  75 N6        30.09F
JOLIET*        MOCLDY    55  50  85 N3        30.10F
WAUKEGAN       MOCLDY    49  48  97 NW3       30.11S
DUPAGE AIRPORT MOCLDY    54  48  80 N6        30.11S
KANKAKEE*      MOCLDY    55  50  82 W3        30.10S
WHEELING       PTCLDY    54  48  80 N8        30.12S
MORRIS*        MOCLDY    54  50  85 CALM      30.08R
ROMEOVILLE*    MOCLDY    53  48  81 N6        30.10F
NORTHERLY ISL    N/A     57  49  74 N10         N/A
$$

LMZ740>746-080800-
SOUTHERN LAKE MICHIGAN

STATION/POSITION SKY/WX   TEMP    WIND        PRES    VSBY  WAVE
                          AIR SEA DIR/SP/G                  HT/PER
                          (F)     (DEG/KT/KT) (MB)    (MI)  (FT/S)
HARRISON CRIB              58      10/ 17/ 21   N/A
BURNHAM HARBOR             57     360/  8/ 14   N/A
CALUMET HARBOR             59      10/  7/ 13   N/A
BURNS HARBOR               61      40/ 15/ 18 1019.6R
MICHIGAN CITY              60      20/ 17/ 19   N/A
MICHIGAN CITY 6N           61 65   50/ 12/ 17   N/A           5/ 6
ST. JOSEPH                 59 60   90/ 14/ 16   N/A           4/ 2
$$

ILZ025>027-034>036-040-047-049-050-058-095>099-080800-
WEST-CENTRAL ILLINOIS

CITY           SKY/WX    TMP DP  RH WIND       PRES   REMARKS
QUINCY         LGT RAIN  66  63  90 E5        30.07S FOG
GALESBURG*     CLOUDY    59  56  91 E5        30.11R
MACOMB*        CLOUDY    61  60  96 E8        30.11S FOG
JACKSONVILLE*  CLOUDY    65  60  82 E6        30.08S
PITTSFIELD*    CLOUDY    66  62  86 E5        30.08S
$$

ILZ028>032-037-038-041>044-048-051>054-059>061-080800-
CENTRAL ILLINOIS

CITY           SKY/WX    TMP DP  RH WIND       PRES   REMARKS
PONTIAC        CLOUDY    56  55  96 CALM      30.12S
BLOOMINGTON    MOCLDY    56  53  89 E5        30.12S
DECATUR        CLOUDY    60  55  83 NE3       30.09S
PEORIA         CLOUDY    61  51  70 E6        30.11S
LACON*         CLOUDY    55  53  94 CALM      30.11S
LINCOLN*       MOCLDY    58  55  88 CALM      30.10F
SPRINGFIELD    CLOUDY    64  53  67 E9        30.09S
TAYLORVILLE    CLOUDY    61  54  77 E7        30.08F
$$

ILZ033-039-045-046-055>057-062-063-080800-
EAST-CENTRAL ILLINOIS

CITY           SKY/WX    TMP DP  RH WIND       PRES   REMARKS
CHAMPAIGN      PTCLDY    58  50  75 NE5       30.09S
DANVILLE*      PTCLDY    53  51  94 CALM      30.05F
RANTOUL*       MOCLDY    58  52  81 N6        30.09S
MATTOON        CLOUDY    61  53  75 N6        30.08R
PARIS*         MOCLDY    59  53  79 N3        30.08S
$$

ILZ079-100>102-080800-
SOUTHWEST ILLINOIS

CITY           SKY/WX    TMP DP  RH WIND       PRES   REMARKS
ALTON          CLOUDY    65  65 100 CALM      30.06F FOG
BELLEVILLE     CLOUDY    64  63  99 E5        30.05S
CAHOKIA*       LGT RAIN  65  62  90 E3        30.06S
SPARTA*        CLOUDY    63  62  96 NE6       30.07S
$$

ILZ064>066-069>071-074>076-080>082-084>086-088>090-092>094-080800-
SOUTH-CENTRAL ILLINOIS

CITY           SKY/WX    TMP DP  RH WIND       PRES   REMARKS
CARBONDALE     CLOUDY    67  64  90 NE5       30.04S FOG
CAIRO*         CLOUDY    73  72  98 S5        30.03F
EFFINGHAM*     CLOUDY    64  50  61 CALM      30.09S
MARION         CLOUDY    66  66 100 N7        30.05S FOG
MT. VERNON     CLOUDY    66  57  72 NE7       30.07R
CENTRALIA*     CLOUDY    61  58  91 NE10      30.07S FOG
SALEM*         HVY RAIN  62  59  89 CALM      30.08S
$$

ILZ067-068-072-073-078-083-087-091-080800-
SOUTHEAST ILLINOIS

CITY           SKY/WX    TMP DP  RH WIND       PRES   REMARKS
LAWRENCEVILLE  LGT RAIN  61  57  87 N7        30.07R FOG
FLORA*         CLOUDY    61  58  91 NE6       30.08S
FAIRFIELD*     RAIN      62  62  98 NE7       30.05F
HARRISBURG*    CLOUDY    67  67 100 N3        30.05F FOG
ROBINSON*      CLOUDY    63  52  68 NE7       30.07S
CARMI*         DRIZZLE   66  61  82 N9        30.04S
$$

ABBREVIATIONS USED IN REMARKS
   TC - TEMPERATURE IN CELSIUS
  WCI - WIND CHILL INDEX
   HX - HEAT INDEX
  VSB - VISIBILITY
$$




USA.gov is the U.S. government's official web portal to all federal, state and local government web resources and services.